Regional Weather Roundup
Issued by NWS

Home | Current Version | Previous Version | Text Only | Print | Product List | Glossary Off
Versions: 1 2 3 4 5 6 7 8 9 10 11 12 13 14 15 16 17 18 19 20 21 22 23 24 25 26 27 28 29 30 31 32 33 34 35 36 37 38 39 40 41 42 43 44 45 46 47 48 49 50

000
ASUS43 KDTX 192001
RWRMI
MICHIGAN HOURLY REGIONAL WEATHER ROUNDUP
NATIONAL WEATHER SERVICE DETROIT/PONTIAC MI
400 PM EDT FRI SEP 19 2014

NOTE: "FAIR" INDICATES FEW OR NO CLOUDS BELOW 12,000 FEET WITH NO
SIGNIFICANT WEATHER AND/OR OBSTRUCTION TO VISIBILITY.

MIZ047>049-052>055-059>063-066>070-074>076-081>083-192100-
SOUTHEAST LOWER MICHIGAN

CITY           SKY/WX    TMP DP  RH WIND       PRES   REMARKS
ADRIAN         MOSUNNY   69  48  47 S10       30.15F
ALMA           MOSUNNY   68  50  53 S7        30.13F
ANN ARBOR      MOSUNNY   68  46  45 E8        30.15F
BAD AXE        MOSUNNY   65  48  54 S9G16     30.14F
CARO           MOSUNNY   66  46  49 SE10G18   30.14F
DETROIT CITY   MOSUNNY   66  49  54 SE10      30.18F
DETROIT        PTSUNNY   65  43  44 E7        30.18F
FLINT          MOSUNNY   68  43  40 S8        30.15F
GROSSE ILE     MOSUNNY   63  52  67 SE7       30.18S
HILLSDALE      MOSUNNY   69  46  42 SW8       30.15S
HOWELL         MOSUNNY   65  46  50 SE9       30.15F

CITY           SKY/WX    TMP DP  RH WIND       PRES   REMARKS
JACKSON        MOSUNNY   68  49  50 SE6       30.15F
LAMBERTVILLE   SUNNY     68  50  52 E3        30.17F
LANSING        MOSUNNY   68  48  48 SW7       30.15S
LAPEER         FAIR      65  41  40 SE10      30.15F
MASON          MOSUNNY   68  49  50 S9        30.14F
MONROE         MOSUNNY   64  50  59 SE8       30.17S
MT. CLEMENS    PTSUNNY   63  49  60 SE10      30.16F
PONTIAC        PTSUNNY   65  42  43 SE10      30.15F
PORT HOPE        N/A     64  50  60 SE8       30.13F
PORT HURON     MOSUNNY   66  50  55 S10G16    30.17F
TRI CITIES     MOSUNNY   67  50  54 S9        30.14F
TROY           MOSUNNY   67  48  49 SE6       30.18F
SAGINAW HB     MOSUNNY   68  48  49 S7        30.14S
$$
MIZ043>046-050>051-056>058-064>065-071>073-077>080-192100-
SOUTHWEST LOWER MICHIGAN

CITY           SKY/WX    TMP DP  RH WIND       PRES   REMARKS
BATTLE CREEK   MOSUNNY   69  50  50 S8        30.14F
BENTON HARBOR  SUNNY     71  51  49 S9        30.09F
BIG RAPIDS     CLOUDY    67  56  67 S12       30.09F
COLDWATER      SUNNY     69  49  47 CALM      30.14F
FREMONT        MOCLDY    68  49  51 S8G18     30.08F
HOLLAND        SUNNY     72  53  51 S10       30.10F
GRAND RAPIDS   PTSUNNY   70  53  54 S15       30.11F
IONIA          MOCLDY    69  49  47 S7        30.12F
KALAMAZOO      SUNNY     70  49  47 S10       30.13F
LUDINGTON      MOSUNNY   69  54  57 S15G26    30.05F
MARSHALL       PTSUNNY   68  48  48 S6        30.13F
MOUNT PLEASANT MOSUNNY   68  51  52 SE7       30.11F
MUSKEGON       PTSUNNY   71  51  49 SW15      30.10F
SOUTH HAVEN    SUNNY     71  51  49 S13       30.10F
$$
MIZ016>042-192100-
NORTHERN LOWER MICHIGAN

CITY           SKY/WX    TMP DP  RH WIND       PRES   REMARKS
ALPENA         MOSUNNY   64  47  53 S18       30.10F
BEAVER ISLAND  MOSUNNY   67  55  63 S9G17     29.98F
BELLAIRE       MOSUNNY   70  51  51 S12G22    30.01F
CADILLAC       MOSUNNY   65  53  63 S13G22    30.07F
CHARLEVOIX     SUNNY     69  53  57 S12G22    30.02F
FRANKFORT      MOSUNNY   69  51  52 S17G28    30.00F
GAYLORD        SUNNY     64  48  56 S16       30.06F
GRAYLING       SUNNY     67  51  57 S9G18     30.09F
HARBOR SPRINGS SUNNY     68  50  51 S9G20     30.00F
HOUGHTON LAKE  SUNNY     64  50  60 S13       30.11F
MANISTEE       MOSUNNY   68  52  56 S14G22    30.03F
OSCODA         PTSUNNY   63  46  53 S12       30.13F
ROGERS CITY    SUNNY     64  53  66 S14G20    30.08F
TRAVERSE CITY  PTSUNNY   69  50  50 S10G17    30.00F
$$
MIZ007>008-015-192100-
EASTERN UPPER MICHIGAN

CITY           SKY/WX    TMP DP  RH WIND       PRES   REMARKS
KINROSS        MOSUNNY   63  52  67 SE18G24   29.98F
MACKINAC ISLAN MOSUNNY   65  52  60 S9        29.99F
NEWBERRY       PTSUNNY   61  53  74 S21G33    29.94F
S. S. MARIE    MOSUNNY   59  49  69 SE12G20   29.98F
$$
MIZ004>006-011>014-085-192100-
CENTRAL UPPER MICHIGAN

CITY           SKY/WX    TMP DP  RH WIND       PRES   REMARKS
MANISTIQUE     CLOUDY    60  56  85 S16G25    29.94F
ESCANABA       PTSUNNY   61  55  82 S17G31    29.89F
MENOMINEE      PTSUNNY   70  54  56 S17G23    29.89F
SAWYER-GWINN   SUNNY     64  52  63 S25G32    29.82F
$$
MIZ001>003-009>011-084-192100-
WESTERN UPPER MICHIGAN

CITY           SKY/WX    TMP DP  RH WIND       PRES   REMARKS
IRON MOUNTAIN  PTSUNNY   66  50  56 S21G30    29.81F
HOUGHTON       CLOUDY    62  51  67 SW9G22    29.72R
COPPER HARBOR    N/A     60  51  72 CALM      29.74R
IRONWOOD       CLOUDY    66  54  63 S9G28     29.70F
$$

ABBREVIATIONS USED IN REMARKS
   TC - TEMPERATURE IN CELSIUS
  WCI - WIND CHILL INDEX
   HX - HEAT INDEX
  VSB - VISIBILITY



USA.gov is the U.S. government's official web portal to all federal, state and local government web resources and services.